Location: Bieujac
(44.5398°N, 0.1549°W)
Time: 11:55:15
(UTC+00:00)

USA 234 - Pass Details

Date: 17 November 2019
Orbit: 1099 x 1108 km, 123.0° (Epoch: 30 November)

Event Time Altitude Azimuth Distance (km) Brightness Sun altitude
Rises 05:39:06 0° 84° (E) 3,914 7.6 -14.2°
Reaches altitude 10° 05:41:49 10° 75° (ENE) 2,957 6.5 -13.8°
Maximum altitude 05:47:32 34° 14° (NNE) 1,730 4.3 -12.8°
Enters shadow 05:53:08 11° 313° (NW) 2,924 5.0 -11.8°
